"Pseudo-MPEC" for P21TEEc

Created 2024 Apr 23 12:22:06 UT using Find_Orb

Click here for an explanation of pseudo-MPECs

 
 Astrometry: 
     P21TEEc* C2024 04 18k#AstrometryC]3t[#5^redacted;]Xh9UAclick8wsSWZSU/`:KF52
     P21TEEc  C2024 04 18%_((\?;0UrEm0X[I3VdOoBdOu?^[3chere;rEC.e8@ford=3NuHxF52
     P21TEEc  C2024 04 18bY:M.coL9DkQ%Xo@*:=8Y/VSNN@IiTfexplanationHH902b7%,(F52

Station data:
(F52) Pan-STARRS 2, Haleakala  (N20.707382 W156.255910)  US/Hawaii.
   Observers J. Bulger, T. Dukes, T. Lowe, A. Schultz, M. Willman. Measurers
   K. Chambers, S. Chastel, T. de Boer, L. Denneau, J. Fairlamb, H.
   Flewelling, M. Huber, C.-C. Lin, E. Magnier, Y. Ramanjooloo, R. Wainscoat,
   R. Weryk. 1.8-m Ritchey-Chrétien + CCD.

Orbital elements:  P21TEEc
   Perihelion 2024 Jun 10.41352 +/- 35.9 TT =  9:55:28 (JD 2460471.91352)
Epoch 2024 Apr 18.0 TT = JDT 2460418.5   Earth MOID: 0.0106   Ve: 0.0206
M 341.45341553 +/- 21               Ma: 0.0061                   AutoNEOCP
n   0.34722639 +/- 0.299            Peri.  283.67408 +/- 100
a   2.00475310 +/- 1.15             Node    17.28268 +/- 60
e   0.6896810 +/- 0.258             Incl.    3.88536 +/- 6
P   2.84                   H 24.20  G  0.15   U 11.9  SR
q 0.62211286 +/- 0.224    Q 3.38739335 +/- 36.1           (J2000 ecliptic)
From 3 observations 2024 Apr. 18 (30.0 min); mean residual 0".09
Residuals in arcseconds: 
240418 F52  .01-  .09-    240418 F52  .01+  .19+    240418 F52  .01-  .09-    

Ephemerides (geocentric):
Date (UTC) HH   RA             Dec           delta  r     elong  mag " sig PA
---- --------  ------------   ------------  ------ ------ -----  --- --------
2024 04 23 12  17 21 01.852   -81 38 39.69  .02336 1.0130 108.1 18.5  27d 163
2024 04 23 13  17 48 36.772   -82 22 12.69  .02325 1.0126 106.9 18.6  27d 164
2024 04 23 14  18 21 42.593   -82 58 13.12  .02314 1.0121 105.7 18.6  27d 166
2024 04 23 15  19 00 20.619   -83 24 13.51  .02305 1.0116 104.5 18.6  27d 167
2024 04 23 16  19 43 20.423   -83 37 48.91  .02296 1.0111 103.3 18.7  27d 167
2024 04 23 17  20 28 07.905   -83 37 20.39  .02289 1.0106 102.0 18.7  28d 167
2024 04 23 18  21 11 27.101   -83 22 35.04  .02283 1.0102 100.8 18.7  28d 165
2024 04 23 19  21 50 36.697   -82 54 49.80  .02278 1.0097  99.6 18.8  28d 164
2024 04 23 20  22 24 17.499   -82 16 15.85  .02274 1.0092  98.3 18.8  28d 163
2024 04 23 21  22 52 24.947   -81 29 14.58  .02271 1.0087  97.1 18.9  29d 161
2024 04 23 22  23 15 35.863   -80 35 50.21  .02269 1.0082  95.8 18.9  29d 159
2024 04 23 23  23 34 40.168   -79 37 41.20  .02268 1.0077  94.6 18.9  30d 157
2024 04 24 00  23 50 25.852   -78 36 02.05  .02268 1.0073  93.3 19.0  30d 155
2024 04 24 01  00 03 33.526   -77 31 48.27  .02270 1.0068  92.1 19.0  31d 152
2024 04 24 02  00 14 35.666   -76 25 41.36  .02272 1.0063  90.8 19.1  32d 150
2024 04 24 03  00 23 57.621   -75 18 12.82  .02276 1.0058  89.6 19.1  32d 148
2024 04 24 04  00 31 59.017   -74 09 46.95  .02281 1.0053  88.4 19.2  33d 145
2024 04 24 05  00 38 55.058   -73 00 42.91  .02287 1.0049  87.1 19.3  34d 143
2024 04 24 06  00 44 57.580   -71 51 16.15  .02294 1.0044  85.9 19.3  35d 141
2024 04 24 07  00 50 15.869   -70 41 39.33  .02302 1.0039  84.7 19.4  36d 138
2024 04 24 08  00 54 57.268   -69 32 03.00  .02311 1.0034  83.5 19.4  37d 136
2024 04 24 09  00 59 07.641   -68 22 36.14  .02321 1.0029  82.3 19.5  38d 135
2024 04 24 10  01 02 51.711   -67 13 26.41  .02332 1.0025  81.1 19.6  39d 133
2024 04 24 11  01 06 13.314   -66 04 40.48  .02344 1.0020  79.9 19.6  40d 131
2024 04 24 12  01 09 15.593   -64 56 24.12  .02358 1.0015  78.8 19.7  41d 130
2024 04 24 13  01 12 01.145   -63 48 42.42  .02372 1.0010  77.6 19.8  42d 128
2024 04 24 14  01 14 32.129   -62 41 39.84  .02387 1.0005  76.5 19.8  44d 127
2024 04 24 15  01 16 50.357   -61 35 20.28  .02403 1.0000  75.4 19.9  45d 126
2024 04 24 16  01 18 57.354   -60 29 47.19  .02420 0.9996  74.2 20.0  46d 125
2024 04 24 17  01 20 54.418   -59 25 03.55  .02438 0.9991  73.2 20.0  47d 124
2024 04 24 18  01 22 42.655   -58 21 11.99  .02457 0.9986  72.1 20.1  48d 123
2024 04 24 19  01 24 23.015   -57 18 14.74  .02477 0.9981  71.0 20.2  49d 122
2024 04 24 20  01 25 56.320   -56 16 13.73  .02497 0.9976  70.0 20.3  50d 121
2024 04 24 21  01 27 23.281   -55 15 10.58  .02518 0.9972  69.0 20.3  51d 120
2024 04 24 22  01 28 44.516   -54 15 06.63  .02541 0.9967  68.0 20.4  52d 120
2024 04 24 23  01 30 00.570   -53 16 02.96  .02564 0.9962  67.0 20.5  53d 119
2024 04 25 00  01 31 11.918   -52 18 00.44  .02587 0.9957  66.0 20.6  54d 118
2024 04 25 01  01 32 18.981   -51 20 59.68  .02612 0.9952  65.1 20.7  55d 118
2024 04 25 02  01 33 22.131   -50 25 01.12  .02637 0.9948  64.1 20.7  56d 117
2024 04 25 03  01 34 21.698   -49 30 05.01  .02663 0.9943  63.2 20.8  57d 117
2024 04 25 04  01 35 17.978   -48 36 11.43  .02690 0.9938  62.3 20.9  57d 116
2024 04 25 05  01 36 11.233   -47 43 20.32  .02717 0.9933  61.5 21.0  58d 116
2024 04 25 06  01 37 01.700   -46 51 31.47  .02745 0.9928  60.6 21.1  59d 115
2024 04 25 07  01 37 49.591   -46 00 44.54  .02774 0.9924  59.8 21.2  60d 115
2024 04 25 08  01 38 35.098   -45 10 59.10  .02803 0.9919  58.9 21.2  61d 114
2024 04 25 09  01 39 18.394   -44 22 14.60  .02833 0.9914  58.1 21??  62d 114
2024 04 25 10  01 39 59.635   -43 34 30.40  .02863 0.9909  57.4 21??  62d 114
2024 04 25 11  01 40 38.963   -42 47 45.81  .02894 0.9904  56.6 21??  63d 113